Vertical_Velocity
0 -2 -8 1 -1 2 -2 1 1 2 -2 -1 -1 3 3 1 -0 2 4 1 -1 -0 -1 -0 0 1 -1 1 0 -1 1 -4
3 1 -2 -5 -6 6 3 -2 -0 -0 1 2 5 3 2 2 3 1 1 1 -3 -1 1 1 0 0 -1 2 2 -2 1 -3
2 -2 -1 -3 2 1 4 3 2 1 1 -1 1 1 0 -1 -1 0 1 1 -0 2 3 0 1 2 -1 0 4 1 -4 -4
5 -2 -1 3 -4 3 -0 -1 1 1 -2 -2 -1 0 -0 -1 1 3 -0 1 1 1 1 1 -1 -2 -0 0 1 2 3 -1
0 -6 -4 4 5 -2 -0 2 1 0 -3 1 1 -3 0 2 2 1 2 2 2 0 -2 -3 -2 -2 3 1 3 2 -0 0
-4 -11 3 7 6 6 -4 -1 1 3 -1 -1 -1 3 3 1 -1 1 1 -1 0 -2 -3 -4 -0 -1 -0 -0 1 2 0 2
9 14 12 12 7 -3 -6 0 -3 -3 -2 -1 3 3 1 -0 1 0 1 -0 -2 -1 -2 -1 -0 -1 -1 -1 -1 1 -2 -1
-3 5 14 19 12 4 2 -0 -5 2 -1 1 1 -1 -0 -3 1 -0 -0 -1 -2 -0 -1 -0 -1 1 -2 1 -3 2 -2 -0
6 25 17 11 -4 8 13 0 -5 2 -3 -2 -2 -1 -1 1 1 -1 -2 -1 1 1 0 1 -1 -2 -1 -0 -2 -2 -0 -0
15 -8 3 -7 -16 17 6 -2 1 -3 -4 2 4 1 0 1 -1 0 -0 1 -0 -0 1 -3 -1 -3 -3 -3 -0 -1 -2 -1
12 7 5 -2 1 9 -3 3 5 -2 -4 -5 2 1 0 -1 0 3 1 -1 0 0 -1 -2 -3 -3 -1 1 -3 -5 -1 2
9 8 1 7 13 1 3 3 6 -0 1 -7 3 3 -1 -1 -3 -1 1 2 1 0 -2 -1 -1 -2 1 -1 -2 -1 -1 1
-4 5 12 14 1 2 7 4 4 2 3 -6 1 3 -1 -1 1 0 -0 1 1 -0 -2 -1 3 0 -1 -2 1 1 0 0
6 -12 -7 16 5 -2 -3 5 -6 1 7 -0 -0 2 1 -0 1 3 3 1 -3 3 1 -3 -0 -1 -1 1 1 1 0 0
-10 -11 1 11 2 3 -2 3 -4 0 1 2 2 3 3 -0 -0 3 3 -4 -2 -0 2 -3 -1 1 1 0 1 1 -0 -0
-45 -27 12 10 -7 9 6 -5 -7 0 1 1 4 -7 3 6 2 6 5 4 2 -4 -2 1 0 2 1 1 1 0 -1 -0
3 0 2 3 6 8 10 -3 0 5 2 -0 4 1 1 2 -7 6 4 3 3 -4 -1 2 -2 3 2 1 0 1 1 2
-10 -7 2 5 -1 9 7 3 3 1 3 5 5 1 3 2 1 1 8 -2 -4 -2 0 2 1 2 3 2 2 1 1 -1
-5 -18 3 4 15 13 4 -3 4 1 -0 -0 1 -0 2 3 2 5 7 -2 -2 1 4 1 0 0 3 3 0 1 2 1
Height
3072 3074 3077 3078 3077 3078 3080 3081 3081 3083 3083 3085 3089 3092 3093 3094 3096 3097 3098 3099 3100 3101 3102 3102 3102 3101 3101 3101 3100 3098 3095 3092
3063 3065 3069 3072 3073 3072 3074 3076 3076 3077 3078 3081 3085 3086 3088 3089 3090 3092 3094 3095 3095 3096 3097 3097 3097 3096 3095 3094 3094 3092 3090 3088
3057 3058 3062 3065 3067 3070 3070 3069 3069 3071 3073 3076 3079 3081 3082 3085 3086 3087 3088 3090 3091 3091 3092 3092 3091 3091 3090 3089 3088 3087 3083 3082
3051 3054 3058 3061 3063 3066 3065 3064 3064 3066 3069 3071 3074 3076 3079 3081 3082 3083 3084 3085 3085 3086 3086 3086 3086 3086 3085 3084 3083 3081 3080 3077
3044 3047 3051 3055 3057 3059 3059 3058 3058 3060 3062 3066 3068 3071 3074 3076 3077 3078 3079 3080 3081 3081 3081 3081 3081 3081 3080 3078 3077 3076 3074 3073
3032 3037 3043 3048 3049 3051 3053 3053 3053 3055 3057 3061 3063 3066 3069 3069 3072 3073 3075 3076 3076 3076 3076 3076 3076 3075 3074 3073 3072 3071 3069 3068
3024 3029 3033 3038 3040 3044 3046 3046 3048 3050 3052 3055 3058 3061 3063 3064 3067 3069 3070 3071 3071 3071 3072 3072 3072 3071 3069 3068 3067 3066 3064 3064
3013 3017 3026 3030 3034 3036 3038 3040 3042 3043 3046 3049 3051 3054 3057 3059 3063 3065 3065 3066 3067 3067 3068 3067 3066 3065 3064 3063 3062 3062 3060 3060
3009 3018 3024 3027 3031 3031 3031 3034 3035 3037 3040 3043 3045 3048 3052 3056 3058 3060 3061 3062 3063 3064 3063 3062 3061 3060 3059 3058 3057 3057 3056 3055
3007 3014 3018 3023 3026 3026 3026 3028 3029 3032 3036 3038 3041 3044 3047 3051 3053 3055 3057 3058 3058 3058 3058 3057 3056 3055 3055 3054 3052 3052 3052 3052
3005 3008 3013 3017 3020 3021 3023 3024 3025 3028 3030 3032 3035 3038 3041 3045 3047 3050 3052 3053 3054 3054 3053 3052 3052 3051 3050 3050 3049 3049 3049 3049
3003 3006 3009 3012 3014 3017 3018 3019 3021 3024 3025 3027 3030 3033 3036 3040 3043 3045 3047 3049 3050 3050 3049 3048 3047 3046 3045 3046 3046 3046 3045 3045
2995 2999 3003 3007 3008 3009 3010 3013 3016 3018 3020 3022 3025 3027 3031 3034 3037 3039 3042 3044 3044 3044 3044 3043 3042 3041 3041 3041 3042 3042 3042 3042
2992 2992 2997 3003 3004 3005 3007 3008 3013 3013 3014 3016 3019 3022 3025 3028 3031 3034 3036 3038 3038 3039 3039 3038 3036 3036 3037 3037 3038 3038 3039 3039
2982 2988 2993 2997 2999 3000 3003 3005 3007 3007 3008 3010 3014 3016 3018 3022 3025 3027 3029 3030 3032 3032 3032 3032 3031 3031 3033 3033 3034 3035 3035 3036
2977 2980 2985 2988 2991 2995 2996 3000 3001 3002 3003 3005 3008 3011 3012 3013 3016 3019 3021 3023 3024 3025 3025 3026 3026 3027 3029 3029 3030 3031 3032 3032
2973 2974 2978 2981 2983 2989 2990 2992 2993 2995 2997 2999 3001 3002 3005 3003 3006 3008 3012 3013 3016 3018 3019 3019 3021 3023 3024 3025 3026 3027 3028 3028
2965 2967 2971 2975 2978 2980 2981 2984 2986 2989 2991 2993 2994 2996 2997 2999 3001 3003 3006 3008 3010 3012 3012 3014 3016 3018 3020 3021 3022 3024 3024 3023
2963 2964 2965 2967 2967 2971 2974 2976 2979 2982 2984 2986 2988 2990 2991 2993 2995 2996 2998 3001 3004 3005 3006 3007 3010 3013 3015 3017 3018 3020 3020 3019